{"data":{"norad_id":66400,"epoch":"2026-05-24T21:49:35.120064Z","epoch_age_seconds":76157,"freshness":"FRESH","line1":"1 66400U 25257W   26144.90943426  .00017578  00000+0  53011-3 0  9991","line2":"2 66400  53.1574 222.2371 0001034  71.7680 288.3435 15.34403081 31410","mean_motion":15.34403081,"eccentricity":0.0001034,"inclination_deg":53.1574,"raan_deg":222.2371,"arg_perigee_deg":71.768,"mean_anomaly_deg":288.3435,"bstar":0.00053011,"rev_number":3141,"period_min":93.847569640014,"perigee_km":461.98674090717,"apogee_km":463.4014247751,"semimajor_km":6840.8310828411,"source":"CELESTRAK","updated_at":"2026-05-25T13:38:21.204585Z"}}